Regional Weather Roundup
Issued by NWS

Home | Current Version | Previous Version | Graphics & Text | Print | Product List | Glossary On
Versions: 1 2 3 4 5 6 7 8 9 10 11 12 13 14 15 16 17 18 19 20 21 22 23 24 25 26 27 28 29 30 31 32 33 34 35 36 37 38 39 40 41 42 43 44 45 46 47 48 49 50
000
ASUS43 KFSD 132110
RWRSD

WEATHER ROUNDUP FOR SOUTH DAKOTA
NATIONAL WEATHER SERVICE SIOUX FALLS SD
400 PM CDT SUN JUL 13 2014

NOTE: "FAIR" INDICATES FEW OR NO CLOUDS BELOW 12,000 FEET WITH NO
SIGNIFICANT WEATHER AND/OR OBSTRUCTIONS TO VISIBILITY.


SDZ001>005-009-010-012>017-132200-
NORTHWEST AND NORTH CENTRAL SOUTH DAKOTA

CITY           SKY/WX    TMP DP  RH WIND       PRES   REMARKS
BUFFALO          N/A     80  51  36 NW22G35   30.08F
FAITH            N/A     80  54  40 NW21G26   30.10F
MOBRIDGE       SUNNY     75  50  41 NW17      30.03F
$$

SDZ012>016-024>037-041>051-057-063-072>074-132200-
SOUTHWEST AND SOUTH CENTRAL SOUTH DAKOTA

CITY           SKY/WX    TMP DP  RH WIND       PRES   REMARKS
RAPID CTY ARPT SUNNY     84  51  31 NW7       30.14F
PIERRE         NOT AVBL
CUSTER         PTSUNNY   75  56  51 CALM      30.27F
ELLSWORTH AFB  MOSUNNY   82  51  33 N9        30.13F
PHILIP         MOSUNNY   85  53  33 N15G24    30.06F
PINE RIDGE     SUNNY     83  56  39 W5        30.14F
WINNER         FAIR      89  51  27 N17G25    30.05F
$$

SDZ004>011-016>023-039-040-132200-
NORTHEAST SOUTH DAKOTA

CITY           SKY/WX    TMP DP  RH WIND       PRES   REMARKS
ABERDEEN       SUNNY     77  43  29 NW18G29   29.99F
WATERTOWN      MOSUNNY   75  51  43 NW16      29.99F
SISSETON         N/A     76  45  33 N17G26    29.95F
$$

SDZ017-020-022-023-036>040-048>070-132200-
SOUTHEAST SOUTH DAKOTA

CITY           SKY/WX    TMP DP  RH WIND       PRES   REMARKS
SIOUX FALLS    MOSUNNY   83  58  42 W15       29.98F
HURON          MOSUNNY   81  58  45 NW14G24   29.99F
CHAMBERLAIN    MOSUNNY   82  55  39 NW14G24   30.03F
MITCHELL       MOSUNNY   85  58  39 W17G25    29.99F
YANKTON        MOSUNNY   82  63  51 W6        30.00F
$$

ABBREVIATIONS USED IN REMARKS
   TC - TEMPERATURE IN CELSIUS
  WCI - WIND CHILL INDEX
   HX - HEAT INDEX
  VSB - VISIBILITY




USA.gov is the U.S. government's official web portal to all federal, state and local government web resources and services.